Total_Precipitation_Accumulation
1.05 0.85 1.10 1.08 1.00 1.00 0.94 0.96 0.90 0.82 0.74 0.69 0.64 0.58 0.55 0.53 0.54 0.56 0.54 0.45 0.40 0.39 0.37 0.42 0.46 0.40 0.40 0.41 0.44 0.47 0.52 0.53 0.46 0.39 0.42 0.45 0.43 0.49 0.63 0.77 0.95 1.01 0.79
0.80 0.81 1.21 1.20 1.16 1.07 0.99 0.98 0.94 0.78 0.68 0.63 0.59 0.54 0.51 0.51 0.54 0.52 0.47 0.42 0.39 0.37 0.37 0.45 0.48 0.43 0.45 0.50 0.58 0.64 0.68 0.62 0.52 0.46 0.59 0.65 0.58 0.60 0.66 0.78 1.06 1.01 0.72
0.70 0.75 0.98 1.33 1.32 1.14 1.00 0.98 0.98 0.81 0.63 0.57 0.57 0.54 0.47 0.44 0.43 0.42 0.43 0.39 0.39 0.38 0.37 0.43 0.48 0.42 0.44 0.54 0.65 0.67 0.68 0.64 0.56 0.63 1.08 1.63 1.21 0.82 0.72 0.83 0.89 0.78 0.66
0.65 0.72 0.84 1.24 1.27 1.14 1.07 1.00 1.05 0.90 0.70 0.62 0.60 0.54 0.47 0.42 0.45 0.53 0.54 0.45 0.41 0.39 0.36 0.41 0.50 0.43 0.42 0.50 0.56 0.55 0.58 0.59 0.64 0.90 1.51 1.95 1.69 1.17 1.02 0.95 0.86 0.79 0.71
0.65 0.73 1.04 1.30 1.15 1.04 1.03 1.08 1.19 1.06 0.92 0.79 0.67 0.57 0.53 0.49 0.50 0.58 0.53 0.51 0.50 0.46 0.45 0.51 0.56 0.50 0.44 0.42 0.44 0.45 0.54 0.73 0.93 1.06 1.41 1.64 1.74 1.40 1.16 1.01 0.94 0.89 0.89
0.65 0.73 0.94 1.10 1.06 1.02 1.03 1.07 1.11 1.12 1.12 0.94 0.77 0.69 0.67 0.64 0.63 0.65 0.65 0.59 0.59 0.57 0.58 0.59 0.57 0.55 0.51 0.49 0.46 0.48 0.62 0.84 1.03 1.18 1.44 1.54 1.53 1.30 1.10 0.99 1.02 1.12 1.14
0.56 0.64 0.75 0.94 0.90 0.92 0.97 1.04 1.03 1.08 1.16 1.03 0.80 0.78 0.80 0.72 0.72 0.74 0.77 0.67 0.65 0.62 0.64 0.65 0.60 0.58 0.55 0.54 0.53 0.56 0.63 0.68 0.83 1.10 1.43 1.64 1.37 1.15 1.09 0.96 0.99 1.23 1.33
0.66 0.62 0.67 0.82 0.88 0.90 0.97 1.07 0.98 1.00 1.09 1.04 0.92 0.85 0.79 0.78 0.81 0.82 0.78 0.73 0.68 0.68 0.68 0.69 0.69 0.62 0.59 0.58 0.58 0.62 0.66 0.63 0.65 0.83 1.00 1.42 1.55 1.37 1.07 0.96 1.02 1.14 1.27
1.03 0.93 0.77 0.70 0.74 0.80 0.96 1.10 1.07 1.03 1.02 0.98 1.02 0.97 0.93 0.90 0.84 0.78 0.77 0.76 0.74 0.75 0.75 0.72 0.68 0.65 0.62 0.61 0.60 0.63 0.70 0.67 0.70 0.75 0.78 1.22 1.52 1.43 1.09 0.95 0.97 1.21 1.30
1.06 1.03 0.89 0.80 0.78 0.80 0.76 0.93 1.13 1.18 1.12 1.02 1.00 0.99 0.98 0.92 0.83 0.77 0.71 0.72 0.77 0.78 0.83 0.83 0.76 0.73 0.69 0.65 0.62 0.68 0.73 0.64 0.60 0.62 0.74 0.99 1.39 1.46 1.29 0.96 0.83 0.91 1.01
0.88 0.89 0.88 0.89 0.92 0.97 0.97 0.95 1.17 1.26 1.18 0.99 0.89 0.93 0.93 0.79 0.81 0.82 0.71 0.83 0.83 0.88 0.92 0.92 0.87 0.85 0.75 0.65 0.70 0.79 0.66 0.54 0.65 0.63 0.71 0.88 1.21 1.37 1.34 1.06 0.80 0.76 0.82
0.72 0.70 0.68 0.71 0.79 0.91 0.99 1.32 1.53 1.33 1.21 0.95 0.94 0.83 0.89 0.96 1.03 0.86 0.79 0.95 0.98 1.02 0.99 0.98 1.01 0.94 0.77 0.59 0.64 0.69 0.55 0.56 0.64 0.56 0.64 0.88 1.13 1.21 1.19 1.04 0.85 0.76 0.78
0.55 0.51 0.50 0.48 0.50 0.59 0.79 1.14 1.43 1.55 1.52 1.43 1.19 0.96 0.97 0.85 0.74 0.68 0.70 0.80 0.87 0.95 0.91 0.94 0.94 0.79 0.70 0.65 0.59 0.52 0.52 0.56 0.66 0.67 0.79 0.95 1.08 1.16 1.15 1.02 0.87 0.79 0.78
0.51 0.50 0.46 0.45 0.42 0.44 0.53 0.70 0.90 1.04 1.14 1.16 1.01 0.91 0.98 0.87 0.76 0.76 0.76 0.75 0.75 0.83 0.92 0.96 0.91 0.78 0.66 0.59 0.56 0.56 0.57 0.58 0.72 0.90 1.02 0.86 0.95 1.09 1.16 1.09 0.95 0.86 0.84
0.55 0.61 0.58 0.49 0.45 0.44 0.47 0.55 0.63 0.78 0.87 0.90 0.92 0.88 0.91 0.92 0.89 0.86 0.78 0.77 0.71 0.77 0.87 0.94 0.89 0.81 0.74 0.68 0.64 0.68 0.71 0.76 0.80 0.85 0.92 0.86 0.93 1.13 1.29 1.29 1.12 0.95 0.92
0.55 0.62 0.67 0.59 0.55 0.50 0.47 0.51 0.55 0.65 0.73 0.77 0.76 0.76 0.86 0.94 0.94 0.90 0.85 0.86 0.83 0.84 0.96 0.94 0.86 0.89 0.87 0.77 0.66 0.65 0.71 0.78 0.84 0.80 0.84 0.93 0.93 0.95 1.21 1.41 1.42 1.18 1.13
0.56 0.59 0.61 0.63 0.63 0.62 0.60 0.58 0.57 0.64 0.74 0.76 0.73 0.68 0.70 0.78 0.84 0.87 0.87 0.87 0.91 0.99 1.04 1.06 0.90 0.90 0.84 0.75 0.70 0.65 0.63 0.66 0.70 0.75 0.73 0.72 0.80 0.86 1.04 1.35 1.54 1.41 1.32
0.48 0.49 0.53 0.55 0.61 0.68 0.71 0.72 0.73 0.73 0.80 0.77 0.76 0.69 0.64 0.69 0.77 0.90 0.91 0.88 0.91 1.03 1.11 1.14 1.05 0.99 0.91 0.86 0.83 0.76 0.69 0.70 0.68 0.75 0.75 0.67 0.79 0.75 0.87 0.99 1.17 1.31 1.35
0.43 0.43 0.45 0.50 0.52 0.64 0.73 0.76 0.84 0.86 0.87 0.85 0.84 0.74 0.71 0.76 0.84 1.01 1.10 1.11 1.11 1.12 1.11 1.06 1.11 1.08 1.04 1.02 0.95 0.91 0.81 0.74 0.76 0.73 0.75 0.77 0.72 0.77 0.84 0.66 0.71 0.80 1.02
0.34 0.36 0.40 0.45 0.48 0.55 0.70 0.82 0.97 1.09 1.05 1.07 1.01 0.89 0.91 1.05 1.19 1.32 1.32 1.40 1.46 1.33 1.28 1.22 1.23 1.18 1.10 1.13 1.05 0.93 0.85 0.74 0.80 0.85 0.85 0.84 0.81 0.76 0.83 0.71 0.63 0.55 0.66
0.23 0.26 0.32 0.36 0.44 0.53 0.61 0.75 0.96 1.24 1.35 1.44 1.40 1.22 1.16 1.28 1.52 1.72 1.69 1.73 1.76 1.62 1.57 1.63 1.82 1.76 1.48 1.25 1.28 1.10 0.91 0.75 0.84 0.88 0.86 0.89 0.90 0.97 1.03 0.91 0.74 0.67 0.56
0.17 0.18 0.24 0.32 0.42 0.51 0.60 0.77 0.94 1.08 1.08 1.26 1.41 1.39 1.30 1.29 1.44 1.57 1.83 1.92 1.84 1.85 1.96 1.99 2.29 2.43 2.00 1.57 1.57 1.66 1.39 1.18 0.90 0.75 0.80 0.83 0.91 1.11 1.13 0.94 0.82 0.71 0.64
0.12 0.13 0.17 0.24 0.35 0.48 0.64 0.87 1.09 1.27 1.36 1.42 1.35 1.43 1.44 1.37 1.41 1.51 1.66 1.82 1.83 1.89 1.98 2.09 2.40 2.85 2.60 2.08 1.84 2.02 1.72 1.52 1.32 0.95 0.76 0.79 0.90 1.09 1.20 1.14 1.05 0.94 0.78
0.11 0.10 0.14 0.23 0.38 0.59 0.80 1.06 1.31 1.51 1.55 1.44 1.48 1.51 1.39 1.34 1.30 1.37 1.51 1.64 1.76 1.78 1.92 2.02 2.12 2.57 2.88 2.57 2.27 1.94 1.61 1.54 1.61 1.40 1.01 0.90 0.95 1.02 1.11 1.09 1.08 1.16 1.06
0.17 0.18 0.25 0.45 0.70 0.96 1.17 1.43 1.72 1.72 1.61 1.51 1.51 1.48 1.42 1.43 1.40 1.39 1.53 1.60 1.61 1.67 1.77 2.10 2.35 2.60 2.78 2.71 2.60 2.43 2.18 1.87 1.50 1.57 1.51 1.24 1.12 1.04 1.06 1.11 1.14 1.17 1.16
0.47 0.61 0.81 1.08 1.27 1.36 1.49 1.64 1.76 1.73 1.74 1.68 1.50 1.40 1.39 1.44 1.49 1.53 1.59 1.59 1.56 1.59 1.70 1.92 2.20 2.41 2.72 2.88 2.76 2.54 2.38 2.21 1.96 1.80 1.60 1.49 1.43 1.20 1.13 1.14 1.10 1.15 1.23